Content
SEND FEEDBACK

Daily
Averages
Monthly
Summary
United States of America

CAMILLA, GEORGIA


Home > North America > United States > Georgia
Elevation: 170 feet     Latitude: 31 14N     Longitude: 084 13W

WEATHER
 
SELECT A DAY
Number of Records: 198,667;   Date Range: 1/1/95 - 11/21/14
 
SHARE

PRINT THIS DATA

[ ← Previous Day ]
WEATHER ALMANAC - FEBRUARY 13, 2013
[ Next Day → ]
[ °C ]   °F
Weather ElementAverageHighLow
Temperature56.6 °F66.9 °F (12:53 pm)48 °F (10:53 pm)
Dewpoint48.3 °F60.8 °F (8:53 am) (7:00 pm)
Humidity81.9 %100 % (1:55 am)44 % (12:53 pm)
Barometer29.88 in30.02 in (11:53 pm)29.78 in (1:55 am)
Wind Speed7 mph17.3 mph (5:53 pm)
Wind Gust26.5 mph (5:53 pm)
Weather ElementAverage
Visibility6.9 mi
Wind DirectionS (181.1 °)

Weather ElementTotal
Precipitation---
Heating Degree Days7.6 (Base 65)
Growing Degree Days7.5 (Base 50)
Averaged from 28 records on February 13, 2013
WEATHER CONDITIONS BREAKOUT
WIND DIRECTION BREAKOUT
WEATHER BY HOUR - FEBRUARY 13, 2013
[ °C ]   °F
Local TimeTemperatureDewpointHumidityBarometerVisibilityWind DirectionWind SpeedGust SpeedPrecipitationEventsConditions
1:55 AM55.4 °F55.4 °F100 %29.78 in4.0 miNE (50°)5.8 mphOvercast
2:55 AM55.4 °F55.4 °F100 %29.82 in2.0 miNorth (10°)5.8 mphRainLight Rain
3:55 AM55.4 °F55.4 °F100 %29.80 in2.0 miNNE (20°)4.6 mphOvercast
4:55 AM57.2 °F55.4 °F94 %29.78 in2.0 miCalmOvercast
5:55 AM55.4 °F55.4 °F100 %29.78 in1.5 miNorth (350°)4.6 mphOvercast
6:25 AM55.4 °F55.4 °F100 %29.82 in1.0 miCalmOvercast
6:55 AM57.2 °F57.2 °F100 %29.81 in0.6 miCalmOvercast
7:10 AM57.2 °F57.2 °F100 %29.79 in0.5 miCalmFogFog
7:30 AM57.2 °F57.2 °F100 %29.82 in1.0 miCalmOvercast
7:53 AM57.2 °F57.2 °F100 %29.83 in0.2 miCalmFogFog
8:53 AM60.8 °F60.8 °F100 %29.83 in7.0 miWNW (290°)9.2 mphMostly Cloudy
9:53 AM60.8 °F53.6 °F77 %29.86 in10.0 miWest (270°)11.5 mphMostly Cloudy
10:53 AM63.0 °F0.0 °F29.90 in10.0 miWest (280°)8.1 mph
11:53 AM64.9 °F48.0 °F54 %29.87 in10.0 miWSW (240°)8.1 mphMostly Cloudy
12:53 PM66.9 °F44.1 °F44 %29.87 in10.0 miWest (260°)15.0 mph21.9 mphClear
1:53 PM66.0 °F45.0 °F47 %29.86 in10.0 miWest (260°)11.5 mphOvercast
2:53 PM64.0 °F45.0 °F50 %29.85 in10.0 miWest (280°)10.4 mphMostly Cloudy
3:53 PM62.1 °F44.1 °F52 %29.88 in10.0 miWest (260°)13.8 mphOvercast
4:53 PM59.0 °F46.9 °F64 %29.88 in10.0 miWest (270°)13.8 mph18.4 mph0.00 inRainLight Rain
5:53 PM55.9 °F46.9 °F72 %29.91 in10.0 miWNW (290°)17.3 mph26.5 mph0.00 inRainLight Rain
5:56 PM55.4 °F46.4 °F72 %29.91 in10.0 miWNW (290°)16.1 mph26.5 mph0.00 inRainLight Rain
6:53 PM51.1 °F43.0 °F74 %29.95 in10.0 miWNW (300°)11.5 mph0.00 inOvercast
7:23 PM48.2 °F44.6 °F87 %29.94 in10.0 miCalm0.00 inRainLight Rain
7:53 PM48.9 °F45.0 °F86 %29.96 in10.0 miWest (280°)3.5 mph0.00 inMostly Cloudy
8:53 PM48.9 °F44.1 °F83 %30.01 in10.0 miWest (260°)6.9 mph0.00 inPartly Cloudy
9:53 PM48.9 °F44.1 °F83 %30.00 in10.0 miWNW (290°)6.9 mphPartly Cloudy
10:53 PM48.0 °F44.1 °F86 %30.00 in10.0 miWest (270°)5.8 mphPartly Cloudy
11:53 PM48.0 °F44.1 °F86 %30.02 in10.0 miWSW (250°)4.6 mphClear
Hourly data recorded from KABY, located miles away from Camilla, Georgia







STORIES FROM OUR PARTNERS